Weather History for KISQ - January, 2013

Change the Weather History Date:

Friday, January 18, 2013

  Actual Average Record
Temperature  
Mean Temperature 16 °F -  
Max Temperature 28 °F 22 °F 42 °F (1951)
Min Temperature 3 °F 6 °F -19 °F (1984)
Degree Days  
Heating Degree Days 50    
Moisture  
Dew Point 8 °F    
Average Humidity 78    
Maximum Humidity 93    
Minimum Humidity 58    
Precipitation  
Precipitation 0.00 in - - ()
Sea Level Pressure  
Sea Level Pressure 30.04 in    
Wind  
Wind Speed 6 mph (WNW)    
Max Wind Speed 12 mph    
Max Gust Speed -    
Visibility 7 miles    
Events Snow    
Averages and records for this station are not official NWS values.
T = Trace of Precipitation, MM = Missing Value Source: NWS Daily Summary

Daily Weather History Graph

Daily Weather History Graph

Search for Another Location

Airport or City:

Trip Planner

Search our weather history database for the weather conditions in past years. The results will help you decide how hot, cold, wet, or windy it might be!

Date:

Astronomy

Jan. 18, 2013 Rise Set
Actual Time 8:20 AM EST 5:30 PM EST
Civil Twilight 7:47 AM EST 6:03 PM EST
Nautical Twilight 7:10 AM EST 6:40 PM EST
Astronomical Twilight 6:34 AM EST 7:16 PM EST
Moon 11:31 AM EST (1/18) 12:45 AM EST (1/18)
Length of Visible Light 10h 16m
Length of Day
9h 10m
Waxing Crescent, 47% of the Moon is Illuminated
Jan 18
Waxing Crescent
Jan 18
First Quarter
Jan 26
Full
Feb 3
Last Quarter
Feb 10
New

Hourly Weather History & Observations

Time (EST) Temp. Windchill Dew Point Humidity Pressure Visibility Wind Dir Wind Speed Gust Speed Precip Events Conditions
12:15 AM 5.0 °F -6.9 °F -4.0 °F 66% 30.29 in 10.0 mi West 6.9 mph - N/A   Overcast
12:34 AM 5.0 °F -6.9 °F -4.0 °F 66% 30.29 in 10.0 mi West 6.9 mph - N/A   Overcast
12:55 AM 5.0 °F -6.9 °F -4.0 °F 66% 30.29 in 10.0 mi West 6.9 mph - N/A   Mostly Cloudy
1:15 AM 5.0 °F -8.1 °F -4.0 °F 66% 30.29 in 10.0 mi West 8.1 mph - N/A   Mostly Cloudy
1:34 AM 6.8 °F -4.8 °F -4.0 °F 61% 30.29 in 10.0 mi West 6.9 mph - N/A   Mostly Cloudy
1:55 AM 6.8 °F -6.9 °F -2.2 °F 67% 30.30 in 10.0 mi West 9.2 mph - N/A   Overcast
2:14 AM 6.8 °F -6.9 °F -4.0 °F 61% 30.30 in 10.0 mi West 9.2 mph - N/A   Overcast
2:35 AM 6.8 °F -6.9 °F -2.2 °F 67% 30.30 in 10.0 mi West 9.2 mph - N/A   Overcast
2:54 AM 5.0 °F -6.9 °F -4.0 °F 66% 30.31 in 10.0 mi West 6.9 mph - N/A   Mostly Cloudy
3:15 AM 5.0 °F -5.6 °F -4.0 °F 66% 30.32 in 10.0 mi West 5.8 mph - N/A   Scattered Clouds
3:35 AM 3.2 °F -9.1 °F -5.8 °F 66% 30.31 in 10.0 mi West 6.9 mph - N/A   Clear
3:54 AM 3.2 °F -9.1 °F -5.8 °F 66% 30.30 in 10.0 mi WNW 6.9 mph - N/A   Clear
4:15 AM 3.2 °F -7.8 °F -4.0 °F 72% 30.30 in 10.0 mi West 5.8 mph - N/A   Clear
4:34 AM 3.2 °F -7.8 °F -4.0 °F 72% 30.29 in 10.0 mi West 5.8 mph - N/A   Clear
4:54 AM 3.2 °F -9.1 °F -4.0 °F 72% 30.29 in 10.0 mi West 6.9 mph - N/A   Clear
5:15 AM 3.2 °F -7.8 °F -4.0 °F 72% 30.29 in 10.0 mi West 5.8 mph - N/A   Clear
5:34 AM 3.2 °F -6.2 °F -4.0 °F 72% 30.29 in 10.0 mi West 4.6 mph - N/A   Clear
5:55 AM 3.2 °F -4.2 °F -4.0 °F 72% 30.29 in 10.0 mi WNW 3.5 mph - N/A   Clear
6:15 AM 3.2 °F -7.8 °F -4.0 °F 72% 30.28 in 10.0 mi West 5.8 mph - N/A   Clear
6:34 AM 3.2 °F -9.1 °F -4.0 °F 72% 30.27 in 10.0 mi West 6.9 mph - N/A   Clear
6:55 AM 3.2 °F -9.1 °F -4.0 °F 72% 30.27 in 10.0 mi West 6.9 mph - N/A   Clear
7:14 AM 3.2 °F - -4.0 °F 72% 30.26 in 10.0 mi Calm Calm - N/A   Clear
7:35 AM 5.0 °F -2.1 °F -2.2 °F 72% 30.25 in 10.0 mi West 3.5 mph - N/A   Scattered Clouds
7:55 AM 5.0 °F - -2.2 °F 72% 30.24 in 10.0 mi Calm Calm - N/A   Overcast
8:14 AM 6.8 °F -2.0 °F -2.2 °F 67% 30.24 in 10.0 mi West 4.6 mph - N/A   Overcast
8:35 AM 6.8 °F - -0.4 °F 72% 30.23 in 10.0 mi Calm Calm - N/A   Overcast
8:54 AM 8.6 °F 2.0 °F -0.4 °F 67% 30.23 in 10.0 mi West 3.5 mph - N/A   Overcast
9:15 AM 8.6 °F 2.0 °F -0.4 °F 67% 30.23 in 10.0 mi West 3.5 mph - N/A   Overcast
9:35 AM 12.2 °F 4.3 °F 3.2 °F 67% 30.22 in 10.0 mi WSW 4.6 mph - N/A   Overcast
9:54 AM 12.2 °F 4.3 °F 5.0 °F 73% 30.21 in 10.0 mi WSW 4.6 mph - N/A   Overcast
10:15 AM 15.8 °F 7.2 °F 3.2 °F 58% 30.19 in 10.0 mi SW 5.8 mph - N/A Snow Light Snow
10:34 AM 15.8 °F 7.2 °F 3.2 °F 58% 30.17 in 2.5 mi SW 5.8 mph - N/A Snow Light Snow
10:55 AM 15.8 °F 6.1 °F 6.8 °F 68% 30.16 in 1.5 mi SW 6.9 mph - N/A Snow Light Snow
11:15 AM 14.0 °F 6.5 °F 8.6 °F 79% 30.14 in 1.0 mi WSW 4.6 mph - N/A Snow Light Snow
11:34 AM 14.0 °F 8.2 °F 10.4 °F 86% 30.12 in 0.8 mi West 3.5 mph - N/A Snow Light Snow
11:55 AM 14.0 °F - 10.4 °F 86% 30.08 in 0.2 mi Calm Calm - N/A Snow Snow
12:14 PM 14.0 °F 6.5 °F 10.4 °F 86% 30.06 in 0.2 mi WNW 4.6 mph - N/A Snow Snow
12:35 PM 14.0 °F 6.5 °F 10.4 °F 86% 30.04 in 0.5 mi North 4.6 mph - N/A Snow Snow
12:55 PM 14.0 °F 5.1 °F 10.4 °F 86% 30.02 in 0.2 mi North 5.8 mph - N/A Snow Snow
1:14 PM 14.0 °F 5.1 °F 10.4 °F 86% 30.00 in 0.5 mi NNE 5.8 mph - N/A Snow Snow
1:35 PM 14.0 °F 2.9 °F 10.4 °F 86% 29.97 in 0.2 mi ENE 8.1 mph - N/A Snow Snow
1:54 PM 14.0 °F 3.9 °F 10.4 °F 86% 29.95 in 0.5 mi ENE 6.9 mph - N/A Snow Snow
2:15 PM 15.8 °F 6.1 °F 10.4 °F 79% 29.93 in 0.5 mi NE 6.9 mph - N/A Snow Light Snow
2:35 PM 15.8 °F 10.2 °F 12.2 °F 86% 29.91 in 0.5 mi NE 3.5 mph - N/A Snow Snow
2:54 PM 17.6 °F 9.3 °F 12.2 °F 79% 29.90 in 0.5 mi NE 5.8 mph - N/A Snow Snow
3:15 PM 24.8 °F 15.3 °F 21.2 °F 86% 29.88 in 0.2 mi SE 9.2 mph - N/A Snow Snow
3:34 PM 26.6 °F 16.8 °F 23.0 °F 86% 29.86 in 0.2 mi SE 10.4 mph - N/A Snow Snow
3:55 PM 26.6 °F 16.2 °F 23.0 °F 86% 29.85 in 0.5 mi SE 11.5 mph - N/A Snow Light Snow
4:15 PM 26.6 °F 16.8 °F 24.8 °F 93% 29.84 in 0.5 mi SE 10.4 mph - N/A Snow Snow
4:34 PM 26.6 °F 17.5 °F 24.8 °F 93% 29.82 in 0.8 mi SE 9.2 mph - N/A Snow Light Snow
4:55 PM 28.4 °F 24.6 °F 26.6 °F 93% 29.81 in 3.0 mi WSW 3.5 mph - N/A Snow Light Snow
5:14 PM 28.4 °F - 24.8 °F 86% 29.81 in 5.0 mi Calm Calm - N/A Snow Light Snow
5:35 PM 26.6 °F 22.6 °F 23.0 °F 86% 29.81 in 10.0 mi West 3.5 mph - N/A   Overcast
5:55 PM 26.6 °F 21.2 °F 21.2 °F 80% 29.79 in 10.0 mi West 4.6 mph - N/A   Overcast
6:14 PM 24.8 °F 19.1 °F 19.4 °F 80% 29.79 in 10.0 mi WNW 4.6 mph - N/A   Overcast
6:35 PM 23.0 °F 18.4 °F 19.4 °F 86% 29.79 in 7.0 mi WNW 3.5 mph - N/A Snow Light Snow
6:54 PM 23.0 °F 14.7 °F 19.4 °F 86% 29.79 in 10.0 mi WNW 6.9 mph - N/A Snow Light Snow
7:15 PM 23.0 °F 15.8 °F 19.4 °F 86% 29.78 in 10.0 mi WNW 5.8 mph - N/A   Overcast
7:34 PM 23.0 °F 15.8 °F 19.4 °F 86% 29.78 in 10.0 mi NW 5.8 mph - N/A   Overcast
7:55 PM 23.0 °F 13.9 °F 19.4 °F 86% 29.78 in 7.0 mi WNW 8.1 mph - N/A Snow Light Snow
8:15 PM 21.2 °F 14.9 °F 17.6 °F 86% 29.77 in 10.0 mi NW 4.6 mph - N/A   Overcast
8:34 PM 21.2 °F 12.6 °F 17.6 °F 86% 29.76 in 10.0 mi NW 6.9 mph - N/A   Overcast
8:55 PM 21.2 °F 11.7 °F 17.6 °F 86% 29.77 in 10.0 mi NNW 8.1 mph - N/A Snow Light Snow
9:14 PM 21.2 °F 10.1 °F 17.6 °F 86% 29.76 in 10.0 mi NNW 10.4 mph - N/A Snow Light Snow
9:35 PM 21.2 °F 12.6 °F 17.6 °F 86% 29.75 in 10.0 mi NNW 6.9 mph - N/A Snow Light Snow
9:55 PM 21.2 °F 12.6 °F 17.6 °F 86% 29.74 in 10.0 mi NNW 6.9 mph - N/A Snow Light Snow
10:14 PM 21.2 °F 12.6 °F 17.6 °F 86% 29.74 in 10.0 mi NNW 6.9 mph - N/A Snow Light Snow
10:35 PM 21.2 °F 11.7 °F 17.6 °F 86% 29.73 in 5.0 mi NNW 8.1 mph - N/A Snow Light Snow
10:55 PM 21.2 °F 14.9 °F 17.6 °F 86% 29.73 in 10.0 mi NNW 4.6 mph - N/A Snow Light Snow
11:15 PM 19.4 °F 11.5 °F 17.6 °F 93% 29.73 in 10.0 mi North 5.8 mph - N/A   Overcast
11:35 PM 21.2 °F 12.6 °F 17.6 °F 86% 29.72 in 10.0 mi North 6.9 mph - N/A   Overcast
11:54 PM 21.2 °F 11.7 °F 17.6 °F 86% 29.73 in 7.0 mi North 8.1 mph - N/A Snow Light Snow